Tracking 19638 objects as of 19-Apr-2019
HD Live streaming from Space Station
objects crossing your sky now

THORAD DELTA 1 DEB

Track THORAD DELTA 1 DEB now!
10-day predictions


NORAD ID: 8595
Int'l Code: 1974-089DJ
Perigee: 1,459.6 km
Apogee: 1,693.8 km
Inclination: 101.4 °
Period: 117.5 minutes
Semi major axis: 7947 km
RCS: 0.0576 m2 (small)
Launch date: November 15, 1974
Source: United States (US)
Launch site: AIR FORCE WESTERN TEST RANGE (AFWTR)

Note: This is SATELLITE DEBRIS
aabbcc
Your satellite tracking list
Your tracking list is empty




NASA's NSSDC Master Catalog

Two Line Element Set (TLE):
1  8595U 74089DJ  19108.64092831 -.00000008  00000-0  28410-3 0  9994
2  8595 101.4167 128.9227 0147320 257.7395 218.0418 12.25297523987168
Source of the keplerian elements: AFSPC